Theta_e
306 306 308 307 306 308 309 310 309 309 310 309 308 310 310 309 309 308 309 310 310 311 312 313 315 317 320 325 334 342 341 343 341 341 341 345 344 344 344 345 346 345 345 345
305 306 307 307 307 308 308 308 310 309 311 311 310 310 310 309 309 309 308 309 309 310 311 312 313 315 317 320 324 329 331 336 338 337 340 341 343 345 345 346 348 348 348 348
306 307 308 308 310 312 311 312 313 312 312 310 309 310 309 309 309 309 309 308 308 308 309 310 311 312 314 315 318 323 327 329 332 336 340 343 345 345 346 346 344 343 339 343
306 307 308 308 311 312 311 312 313 312 311 311 310 311 309 309 309 309 308 308 307 307 308 308 308 309 310 312 314 316 322 327 331 335 341 344 343 344 344 343 341 340 340 340
306 307 307 307 311 312 310 312 311 311 310 309 310 309 308 308 308 308 307 310 313 312 311 311 312 313 314 314 313 314 317 325 330 335 342 343 343 341 342 340 339 339 338 340
306 306 308 310 312 311 311 310 307 307 308 310 309 309 308 307 308 308 312 314 313 312 312 312 312 314 315 316 317 317 315 320 328 332 335 342 341 339 339 335 335 332 333 333
307 307 311 311 311 308 307 306 308 308 307 310 308 310 310 309 310 313 313 313 312 311 310 310 311 313 315 316 316 316 315 319 328 333 336 339 339 337 337 335 331 331 334 336
306 307 310 313 310 309 309 307 308 311 311 308 308 310 310 312 313 313 314 312 312 311 308 308 310 311 314 315 316 315 315 318 327 333 334 336 336 335 334 333 331 331 331 335
310 311 310 310 309 308 309 310 307 309 309 309 309 310 311 311 313 313 312 311 310 309 309 309 309 311 313 315 316 313 321 317 321 331 333 334 335 334 332 331 331 331 334 337
310 312 310 311 310 309 307 307 308 307 313 314 310 312 312 310 310 313 312 310 309 309 308 309 310 311 313 316 314 320 326 323 319 327 331 331 331 331 332 332 333 335 337 343
311 310 311 311 310 308 308 310 311 308 310 309 310 311 310 312 313 313 311 310 309 308 309 310 310 311 313 315 314 318 321 331 318 324 330 330 331 331 332 334 336 338 342 345
312 310 313 312 309 309 309 309 310 305 306 314 312 312 310 309 308 310 310 311 310 309 309 310 311 311 313 311 314 315 318 331 331 319 323 326 328 333 335 337 338 340 344 346
310 309 313 310 307 306 311 313 311 310 309 313 314 311 309 309 310 309 310 311 310 310 311 312 312 313 313 311 313 316 323 331 334 327 329 332 335 338 340 341 341 343 344 344
313 309 312 313 310 307 311 312 312 314 316 314 313 311 310 310 310 311 312 311 310 310 314 314 314 315 316 315 321 324 324 334 338 335 337 341 342 341 341 342 342 343 344 344
309 311 311 312 312 313 314 314 314 315 315 318 314 312 311 310 311 311 312 312 313 317 318 318 317 317 321 319 320 320 321 332 341 341 341 343 344 343 343 343 343 343 343 342
307 309 313 313 311 311 312 313 313 312 312 314 314 314 312 312 311 311 310 311 312 317 315 314 314 317 320 321 321 321 322 328 343 343 342 343 344 344 344 343 343 342 343 342
307 307 309 312 312 313 314 313 314 315 314 314 315 313 312 313 311 310 310 310 311 313 311 312 314 315 317 324 323 322 322 327 342 342 341 341 341 340 340 341 341 339 338 340
307 309 314 314 311 316 311 314 313 313 313 312 311 312 312 311 310 309 309 309 311 309 310 310 313 312 313 316 325 324 325 329 340 340 339 338 337 335 335 335 334 336 336 334
308 310 316 316 310 311 312 314 314 313 313 312 313 312 312 311 310 310 309 309 309 309 309 310 311 311 313 315 324 326 328 324 338 339 338 336 335 333 332 332 332 331 331 330
310 311 314 314 317 313 309 314 312 313 315 312 311 311 311 311 312 310 308 308 310 308 308 309 310 311 314 318 325 326 326 324 339 338 337 335 334 333 331 332 332 331 331 330
313 315 315 314 314 312 312 313 311 315 312 311 311 311 310 311 310 308 307 308 307 307 309 310 310 313 315 318 323 323 327 324 336 336 335 333 333 332 332 332 332 330 329 328
308 308 309 314 316 311 312 313 315 314 312 312 311 309 308 308 307 307 307 308 307 309 310 311 312 315 315 323 324 324 325 325 325 333 333 332 332 332 331 332 330 329 328 326
305 312 313 308 307 306 311 312 312 312 311 307 306 305 307 308 307 308 307 307 309 310 311 313 317 317 318 327 323 324 324 326 328 331 331 331 332 332 331 330 329 327 326 324
308 306 306 309 309 310 312 310 310 308 305 304 305 306 307 308 308 308 309 309 310 311 313 315 319 320 325 325 325 325 326 327 331 330 331 331 330 330 330 330 329 327 326 325
308 308 310 312 311 312 312 310 307 304 305 306 306 307 308 307 308 309 310 311 312 312 313 316 322 322 327 324 328 328 326 330 331 331 331 329 329 329 328 328 328 328 328 328
307 309 313 313 312 312 312 307 306 306 307 306 307 306 307 307 308 310 311 311 312 313 315 317 322 328 329 330 331 331 331 331 331 330 329 328 326 325 324 324 326 328 328 327
Wind_Speed
2 3 3 10 8 6 4 2 2 4 5 5 7 15 9 7 6 8 9 8 10 11 9 18 21 16 18 25 32 39 37 40 40 39 35 30 30 33 36 40 40 34 27 29
5 1 4 4 4 4 4 1 1 4 5 7 10 22 10 3 5 5 8 8 8 10 12 12 19 18 14 22 29 36 41 47 47 37 34 26 25 29 38 42 41 30 26 30
3 6 4 3 3 2 1 3 2 3 6 5 7 18 12 3 3 6 7 7 8 8 12 14 12 21 23 21 22 29 39 41 42 46 34 28 24 21 24 31 30 32 29 34
4 3 1 3 2 1 2 1 1 5 6 3 5 12 5 8 10 4 8 8 10 11 10 9 11 13 24 25 25 26 31 41 44 45 39 34 32 26 32 36 38 34 33 34
6 2 2 4 1 2 4 2 3 3 4 2 2 4 3 14 13 16 11 6 5 8 8 10 11 17 27 30 31 30 29 31 41 41 39 39 34 31 31 33 30 30 29 31
8 2 4 4 1 1 3 2 5 4 2 1 7 5 4 2 2 8 5 8 8 8 10 11 14 19 21 28 31 33 29 31 33 41 46 38 35 35 31 28 29 28 27 25
3 2 1 3 3 5 5 5 4 4 2 5 3 5 11 16 16 5 9 9 10 10 9 9 11 13 19 23 28 29 26 29 31 38 38 42 38 37 37 40 36 32 25 21
3 5 2 1 4 5 4 6 5 5 3 13 6 7 7 6 7 8 8 10 10 13 9 9 11 12 18 21 27 26 29 30 28 34 38 42 43 40 41 43 39 33 26 25
2 4 3 3 2 5 2 4 5 4 1 1 5 8 10 18 9 10 8 9 11 12 13 11 11 10 19 20 26 28 28 30 31 34 39 40 41 40 40 38 33 28 25 24
3 3 5 3 1 3 5 4 1 2 3 4 5 5 9 12 13 9 11 10 12 13 12 14 12 12 19 21 27 28 29 26 33 38 41 43 42 39 36 30 26 26 24 26
4 4 4 3 4 6 2 1 3 2 3 4 3 7 6 8 10 12 14 14 11 13 14 13 14 17 22 23 25 27 24 24 27 34 40 38 36 34 30 26 26 27 27 28
4 4 3 9 9 6 5 5 5 4 5 5 3 14 5 15 11 10 15 18 13 13 12 11 14 12 21 20 22 22 22 21 20 31 35 37 35 28 25 28 27 28 28 28
4 1 3 6 3 5 1 4 4 3 1 12 7 13 2 9 17 16 16 16 16 9 11 12 18 12 15 16 15 19 21 21 14 22 25 29 29 28 29 28 28 28 27 28
7 4 6 6 6 3 9 15 14 12 4 9 15 24 19 19 16 12 14 14 10 9 7 15 16 14 13 7 11 17 23 24 11 19 26 27 30 30 29 28 27 27 28 29
4 7 7 10 14 13 17 20 19 17 20 13 17 18 21 16 8 7 8 14 16 11 13 14 20 17 11 6 15 23 23 21 10 17 21 24 26 26 25 25 25 27 28 29
1 4 3 8 14 17 20 21 18 21 19 17 16 17 12 4 5 10 12 14 16 10 12 12 18 19 18 10 10 20 21 18 11 21 21 23 25 24 25 27 29 30 31 30
4 2 2 8 1 7 12 11 9 5 5 3 8 16 5 10 12 14 14 16 16 11 14 17 17 16 17 18 19 17 21 21 15 20 20 22 24 26 27 30 30 28 32 32
6 5 3 5 4 4 4 3 1 3 10 11 13 13 3 6 13 15 15 13 10 16 16 15 15 16 26 30 27 23 18 15 17 18 21 22 25 26 28 29 31 31 32 31
13 5 3 3 3 7 7 4 4 2 9 11 10 4 9 12 16 15 10 4 14 15 15 14 19 26 29 28 21 19 11 17 12 20 24 25 28 30 31 29 29 32 32 29
7 5 2 2 4 5 5 3 3 1 7 4 3 7 11 13 16 15 11 18 16 18 16 15 25 24 22 27 20 11 3 17 11 25 27 28 30 32 32 32 32 29 30 28
2 2 6 6 5 7 3 5 5 3 4 3 8 12 12 14 14 20 19 18 17 19 20 26 24 20 22 27 15 8 4 8 8 22 28 29 30 30 35 32 30 29 30 28
2 3 4 3 3 7 3 0 2 7 13 13 13 16 17 19 18 19 18 17 19 19 20 23 16 17 24 22 9 6 7 7 12 13 29 28 31 29 32 32 28 31 31 27
2 2 2 6 6 6 4 6 13 13 11 13 16 19 19 18 19 19 18 19 19 19 16 23 16 16 21 7 9 6 11 4 7 15 26 28 29 30 30 30 26 25 28 23
4 3 4 3 5 5 9 9 6 7 9 13 17 19 17 19 18 19 18 17 17 16 16 20 16 9 8 12 5 11 13 7 14 21 24 27 27 25 26 28 29 27 22 19
7 4 5 6 11 11 13 5 15 9 11 19 19 19 16 18 18 19 16 17 16 16 17 18 13 8 5 19 21 21 25 20 22 23 23 22 26 27 22 22 20 26 28 29
3 6 4 8 9 13 10 9 10 14 15 21 16 18 18 17 19 18 16 16 15 15 18 13 14 11 3 6 12 24 31 31 26 21 21 22 23 22 25 24 19 21 24 21
Wind_Direction
347 75 222 241 209 230 268 256 235 266 335 349 282 299 315 277 294 291 300 302 308 305 302 313 320 321 287 248 239 221 224 223 221 217 222 230 236 238 236 240 241 239 241 243
13 225 217 235 209 206 228 192 324 275 329 333 310 297 299 262 253 271 290 301 292 302 313 315 316 318 315 282 248 237 234 235 229 230 228 227 231 232 233 237 238 243 241 246
169 245 295 9 48 68 97 124 322 277 313 288 314 292 297 231 280 283 280 288 301 278 294 305 308 308 311 307 294 262 248 238 238 232 226 222 229 229 228 232 239 241 245 244
234 266 54 15 173 132 337 118 356 328 11 311 56 291 252 272 289 279 271 267 279 309 319 314 317 316 314 305 299 291 265 249 238 230 217 215 219 220 231 238 241 241 240 241
259 267 342 332 216 157 239 349 327 299 294 9 254 284 110 324 289 278 296 352 311 301 302 302 300 302 303 309 310 306 295 261 244 230 220 216 221 223 226 233 238 236 239 237
246 191 166 206 211 305 60 34 16 30 46 314 230 207 326 230 317 318 291 292 297 293 287 294 292 295 298 311 309 306 297 287 262 234 228 217 219 216 213 222 225 229 232 238
316 351 71 102 27 7 65 51 346 339 359 241 275 272 264 299 299 297 282 289 285 280 273 279 298 305 310 310 313 307 296 286 261 234 224 217 219 218 220 225 229 228 225 231
141 321 118 119 196 211 228 156 162 254 240 283 277 253 255 236 232 256 253 265 275 286 279 272 282 293 296 294 305 310 294 275 255 230 221 221 217 217 221 229 232 231 232 234
156 259 282 213 169 129 199 176 208 233 108 345 228 268 291 265 237 264 262 251 266 280 292 289 285 276 281 290 301 301 299 275 258 234 222 219 219 220 225 230 232 233 227 231
167 290 255 266 123 265 161 190 1 9 284 252 262 259 252 275 278 282 288 289 291 293 294 299 294 281 287 296 302 300 308 283 251 241 226 224 225 225 229 231 227 224 219 218
172 158 278 359 227 201 307 242 91 131 169 224 288 261 221 255 273 277 284 281 276 287 295 299 305 298 287 293 298 297 306 305 249 236 229 223 229 233 230 229 224 216 209 204
186 145 230 233 269 239 185 227 158 133 260 224 226 270 229 259 285 296 281 284 284 279 284 298 303 297 287 281 293 298 308 298 269 235 232 225 230 225 217 215 213 206 202 198
183 180 310 321 7 5 188 200 206 209 263 245 252 268 286 309 305 297 292 288 276 303 299 318 317 298 286 275 298 305 318 306 275 228 219 204 202 196 195 197 194 194 193 191
170 166 190 233 240 193 285 271 265 252 236 261 230 271 274 285 290 309 315 290 287 289 312 341 311 310 277 317 325 327 343 324 267 196 192 175 176 183 188 189 188 189 189 183
147 204 211 241 261 275 268 270 271 258 258 250 273 260 280 283 297 320 331 342 338 351 354 347 319 321 292 339 334 327 336 333 214 177 172 164 172 181 179 177 180 180 178 176
191 253 219 267 269 260 269 267 259 267 262 255 269 275 270 307 292 330 332 323 311 312 335 335 305 312 314 325 320 321 318 335 210 169 164 167 169 169 166 170 169 168 169 171
174 185 55 280 321 300 280 257 210 248 213 252 281 275 308 327 329 318 309 301 294 329 323 316 308 308 312 310 319 320 318 318 218 165 156 157 155 154 157 158 159 157 162 163
209 164 193 286 354 257 257 293 320 279 280 273 279 281 329 318 295 295 293 293 309 320 313 305 298 307 310 319 310 313 303 319 198 154 148 148 146 141 139 142 144 149 155 158
211 161 234 233 210 294 287 201 197 160 280 265 257 309 315 311 301 285 259 296 301 296 295 288 292 299 298 297 289 292 260 331 213 155 151 151 145 134 134 137 138 148 153 152
125 157 207 218 247 257 247 166 130 99 271 104 303 284 300 316 304 295 318 307 297 293 297 296 290 285 284 294 279 274 292 331 178 154 156 152 146 139 137 143 145 150 153 149
171 185 225 245 259 276 284 120 65 246 289 247 297 297 298 287 276 292 298 287 290 292 293 287 284 278 278 280 271 271 146 1 111 157 147 142 141 138 147 147 152 150 146 144
230 177 225 240 244 279 164 78 261 293 299 311 303 301 293 286 291 290 291 294 293 291 291 292 285 281 279 280 233 219 185 139 330 178 137 140 139 138 148 148 145 146 143 139
304 203 265 195 228 233 207 257 287 278 299 311 302 298 293 296 293 294 294 287 291 291 292 287 283 273 284 314 237 250 157 180 306 188 136 135 139 145 150 141 137 133 143 137
274 268 244 304 280 279 297 296 279 280 289 301 292 295 295 289 290 288 287 288 291 290 286 290 290 276 295 333 277 151 178 316 189 144 127 133 135 135 142 152 153 146 146 143
251 306 249 260 280 311 294 302 313 280 306 318 295 289 292 294 289 288 288 286 281 282 286 291 296 278 291 299 266 237 211 198 141 128 127 130 135 135 132 137 148 160 171 170
204 218 260 285 294 292 285 295 311 296 309 307 304 303 296 293 291 291 285 283 279 279 281 281 287 250 292 344 128 160 169 145 136 129 126 138 136 135 144 145 142 168 173 174